Dewpoint
70 72 73 74 75 77 76 77 77 76 78 79 80 79 78 79 80 79 79 78 77 78 77 76 75 75 75 76 73 72 71 71 68 68 70 69 69 67 67 74 74 75 73
72 75 73 75 76 72 74 75 78 77 77 80 79 78 78 80 79 78 77 76 76 76 76 76 75 73 73 73 72 71 72 73 71 69 70 70 72 69 72 72 73 70 73
72 69 69 71 71 73 73 73 74 75 77 75 77 79 80 79 77 77 77 74 74 74 76 76 75 75 73 72 73 72 71 74 73 71 70 73 74 73 73 73 72 73 76
67 66 70 70 69 69 72 74 74 79 79 77 77 79 80 77 77 76 75 74 75 75 74 75 76 75 74 74 74 74 74 73 73 71 70 71 72 72 73 70 69 72 73
71 69 73 74 73 73 75 76 76 78 78 79 79 79 80 78 79 77 77 76 76 75 75 75 75 75 73 73 73 74 74 72 70 67 66 72 72 71 71 72 70 71 73
77 75 76 76 75 76 80 79 80 79 80 80 79 79 78 75 71 71 71 75 75 76 75 75 75 73 73 70 69 70 71 72 69 67 66 68 72 73 73 71 70 70 68
77 76 76 77 79 80 80 80 78 78 78 76 75 76 76 77 70 69 70 70 71 72 74 74 73 69 71 74 71 68 68 68 67 68 67 68 70 74 74 73 70 70 69
75 75 78 79 79 78 77 77 76 75 75 75 73 73 74 72 70 68 69 69 67 68 71 73 73 73 73 73 73 72 71 71 69 68 68 67 70 71 74 75 73 71 72
77 78 78 78 77 76 74 73 74 73 73 72 71 72 71 71 68 66 67 68 65 65 65 67 70 72 69 67 71 69 69 69 64 65 68 67 68 67 70 74 72 70 68
77 77 77 76 74 73 72 73 74 74 71 70 70 70 67 68 65 63 64 64 62 61 64 64 61 63 61 63 69 69 68 68 70 68 71 69 68 70 66 72 71 69 68
76 75 74 73 72 72 73 75 74 73 73 71 70 70 70 68 68 63 61 65 64 62 61 60 60 61 59 58 59 66 67 66 66 66 65 67 70 71 71 71 71 69 66
75 74 73 73 68 69 72 74 73 72 71 70 69 69 66 70 65 64 61 60 63 63 63 63 65 57 55 56 58 60 60 62 66 67 66 67 66 65 68 69 71 70 68
72 72 72 72 72 72 70 73 69 70 69 66 62 58 59 62 61 59 58 58 59 61 62 61 55 53 52 54 58 57 57 59 60 58 57 59 61 67 67 65 70 71 70
72 72 71 72 72 73 70 67 65 65 63 63 61 61 59 60 61 62 61 61 58 58 57 55 55 54 54 54 55 57 58 60 59 59 60 62 62 61 65 66 65 69 70
70 68 67 66 67 68 70 66 64 66 62 60 59 59 59 58 59 55 53 55 55 54 52 54 53 53 53 53 52 52 54 57 59 60 59 59 59 59 60 64 64 66 66
67 66 66 64 64 63 61 60 56 53 51 48 48 53 58 54 49 46 45 45 46 47 52 53 53 53 54 54 54 53 54 56 57 59 58 58 60 60 60 59 60 62 64
64 67 64 60 59 59 61 60 58 56 52 48 47 47 47 47 46 44 44 45 47 48 52 53 54 54 55 55 55 54 53 53 56 55 55 59 58 59 57 60 61 60 62
66 58 61 60 59 59 58 57 55 55 54 55 51 50 47 46 46 46 44 47 52 53 53 53 53 54 54 56 58 58 58 59 58 59 57 56 57 57 54 57 59 61 59
64 60 61 59 59 57 57 56 54 52 51 51 53 50 49 46 44 45 46 50 50 50 51 51 52 53 53 53 54 55 57 57 58 58 59 58 56 55 57 55 54 54 55
59 58 57 57 54 54 52 50 50 52 51 51 50 50 50 48 48 48 49 49 49 49 50 50 50 50 51 52 53 54 54 54 54 55 57 58 59 58 56 57 57 53 58
54 55 55 50 49 48 50 50 50 49 48 48 47 48 46 48 48 48 49 48 47 47 47 47 48 48 50 50 51 51 51 51 52 53 54 55 57 59 59 59 59 56 57
50 50 49 48 49 50 49 48 48 47 46 46 46 47 45 47 46 46 46 46 46 46 46 47 47 47 48 49 50 52 52 51 51 52 53 53 54 58 60 60 60 59 61
47 46 47 48 49 49 47 47 47 46 46 47 47 46 45 45 46 46 46 46 47 47 47 48 49 49 50 51 53 54 53 52 52 52 54 55 55 57 60 60 61 61 61
48 47 49 48 47 46 46 46 47 46 47 46 45 45 46 46 46 46 47 48 48 47 48 48 48 48 50 51 53 54 54 55 55 55 56 56 57 57 61 60 60 62 63
49 48 48 46 45 46 46 46 46 46 46 46 46 46 46 46 46 47 47 48 48 48 48 47 48 47 46 47 49 48 44 37 40 44 52 57 58 60 61 61 61 61 60
49 47 47 46 47 46 46 46 46 46 46 46 46 47 47 46 45 46 46 46 47 47 48 48 47 47 46 45 45 40 34 35 39 35 48 54 56 59 61 61 61 61 61
Lifted_Index
-6 -7 -7 -7 -7 -8 -8 -8 -8 -8 -8 -9 -9 -9 -10 -10 -11 -10 -10 -10 -10 -10 -9 -9 -8 -7 -6 -5 -4 -4 -4 -4 -4 -4 -3 -2 -2 -1 -3 -4 -5 -5 -6
-6 -6 -7 -7 -7 -7 -7 -7 -8 -8 -8 -9 -9 -9 -10 -10 -10 -10 -10 -9 -9 -9 -9 -9 -8 -7 -6 -5 -5 -4 -5 -5 -5 -5 -4 -4 -3 -3 -3 -4 -5 -5 -5
-6 -6 -6 -7 -7 -7 -7 -7 -7 -8 -8 -8 -8 -9 -9 -10 -10 -9 -9 -8 -8 -8 -9 -9 -9 -8 -7 -6 -6 -6 -6 -6 -6 -6 -6 -5 -5 -5 -4 -4 -4 -5 -5
-6 -6 -6 -6 -6 -6 -6 -6 -7 -8 -8 -8 -8 -9 -9 -9 -9 -9 -8 -7 -7 -7 -8 -8 -9 -8 -8 -8 -7 -7 -7 -7 -6 -5 -5 -6 -5 -5 -5 -4 -4 -4 -5
-7 -7 -6 -6 -6 -6 -7 -7 -8 -8 -9 -9 -9 -9 -9 -9 -9 -8 -7 -7 -7 -7 -7 -8 -8 -8 -8 -8 -8 -8 -7 -6 -5 -4 -4 -5 -5 -5 -5 -4 -4 -4 -4
-8 -7 -7 -7 -7 -8 -9 -9 -9 -9 -9 -9 -9 -9 -9 -9 -8 -7 -7 -6 -6 -7 -7 -7 -7 -7 -7 -7 -7 -7 -7 -6 -5 -4 -4 -4 -5 -6 -6 -5 -4 -4 -4
-8 -8 -8 -8 -9 -9 -10 -9 -9 -8 -8 -7 -7 -7 -7 -7 -6 -5 -5 -4 -4 -5 -6 -7 -7 -7 -6 -7 -6 -6 -6 -5 -4 -4 -4 -4 -5 -6 -7 -6 -5 -4 -4
-9 -9 -9 -10 -10 -9 -9 -7 -6 -6 -5 -5 -4 -4 -4 -4 -3 -3 -2 -2 -2 -2 -3 -5 -6 -6 -6 -6 -6 -5 -5 -4 -4 -4 -4 -4 -5 -5 -7 -7 -6 -5 -5
-10 -10 -10 -10 -9 -8 -6 -5 -4 -4 -4 -4 -3 -3 -3 -2 -2 -1 -0 -0 0 0 -0 -1 -2 -3 -4 -4 -5 -4 -4 -4 -4 -3 -4 -5 -5 -5 -6 -7 -7 -6 -5
-10 -10 -9 -8 -6 -5 -4 -4 -4 -4 -4 -4 -4 -3 -3 -2 -1 -0 1 1 1 1 2 2 1 1 0 -1 -2 -3 -4 -4 -3 -3 -3 -4 -5 -6 -6 -6 -6 -6 -5
-9 -9 -7 -6 -4 -4 -4 -4 -4 -5 -5 -5 -4 -4 -3 -2 -1 -1 0 1 1 1 2 2 2 3 3 2 1 -0 -2 -2 -2 -2 -3 -4 -5 -5 -6 -6 -5 -5 -4
-8 -7 -6 -5 -4 -4 -4 -5 -5 -5 -4 -4 -3 -2 -2 -1 -1 -0 0 1 1 1 2 2 2 3 3 3 3 2 1 0 -0 -1 -1 -2 -3 -4 -5 -5 -5 -5 -4
-6 -6 -5 -5 -4 -4 -5 -5 -5 -4 -3 -1 -1 -0 -0 -0 -0 -0 1 1 2 2 2 2 3 3 4 4 4 3 3 2 2 2 1 -0 -1 -3 -4 -4 -5 -5 -5
-5 -5 -5 -4 -5 -5 -5 -4 -3 -2 -1 -0 0 0 -0 -0 -0 -0 1 1 2 3 3 4 4 4 5 5 5 4 3 3 2 2 2 1 0 -1 -3 -4 -4 -5 -5
-4 -4 -4 -4 -4 -3 -3 -3 -2 -1 -0 0 0 0 -0 -1 -0 0 1 2 3 4 4 5 5 5 5 5 5 5 4 3 2 1 1 1 1 0 -1 -3 -3 -4 -4
-3 -2 -3 -2 -2 -1 -1 -2 -1 -0 0 1 1 1 1 1 1 1 2 3 4 4 5 5 5 4 4 3 4 4 3 3 2 2 1 1 1 0 -1 -1 -2 -3 -3
-1 -1 -1 -1 -1 -0 -1 -1 -0 0 1 1 2 2 3 3 3 3 3 4 4 4 5 4 4 4 3 3 2 2 2 2 2 2 2 1 0 0 0 -1 -2 -2 -3
-1 -1 -1 -1 -0 -0 -0 0 1 2 2 2 3 3 4 4 4 4 5 5 4 4 4 4 4 4 4 3 3 2 2 2 2 2 1 1 1 1 1 0 -1 -1 -2
-1 -0 0 0 1 1 2 2 2 3 3 3 4 5 5 5 5 5 5 5 4 4 4 4 5 5 5 4 4 4 3 2 2 2 2 1 1 1 1 1 0 -0 -1
1 1 2 2 3 3 4 4 4 4 4 5 5 6 6 6 5 5 5 5 5 5 5 6 6 6 6 6 6 5 5 4 4 4 3 2 2 1 1 1 1 1 0
2 3 4 5 5 5 6 6 5 5 5 6 6 6 6 6 5 5 5 5 6 6 7 7 7 7 7 7 7 7 7 6 6 6 5 4 3 2 2 2 1 1 0
4 5 6 6 7 7 7 7 7 6 6 6 6 6 6 6 6 6 6 6 7 8 9 9 8 8 9 8 8 8 8 8 8 7 7 6 5 3 3 2 2 1 0
6 7 7 8 8 8 8 8 8 7 6 6 6 6 6 6 7 7 7 7 8 9 9 9 9 9 9 9 9 9 9 8 8 8 8 7 6 4 3 2 2 1 0
8 8 8 8 8 8 8 8 8 7 7 6 6 7 7 7 8 8 8 8 8 9 9 9 8 8 8 8 8 8 8 7 7 7 6 6 5 4 2 2 1 1 0
9 9 9 8 7 7 8 8 7 7 7 7 7 8 8 9 9 9 9 9 9 9 9 9 9 8 8 8 7 7 6 5 4 4 4 4 3 3 2 1 1 1 1
9 9 9 8 7 7 8 8 7 7 7 7 8 9 9 10 10 10 10 10 9 9 9 9 9 8 8 8 7 6 5 4 3 3 3 2 2 2 2 1 1 0 0